Regional Weather Roundup
Issued by NWS Cleveland, OH

Home | Current Version | Previous Version | Text Only | Print | Product List | Glossary Off
Versions: 1 2 3 4 5 6 7 8 9 10 11 12 13 14 15 16 17 18 19 20 21 22 23 24 25 26 27 28 29 30 31 32 33 34 35 36 37 38 39 40 41 42 43 44 45 46 47 48 49 50

433
ASUS41 KCLE 301210
RWRCLE
OHIO REGIONAL WEATHER ROUNDUP
NATIONAL WEATHER SERVICE WILMINGTON, OH
800 AM EDT TUE MAY 30 2017

NOTE: "FAIR" INDICATES FEW OR NO CLOUDS BELOW 12,000 FEET WITH NO
SIGNIFICANT WEATHER AND/OR OBSTRUCTIONS TO VISIBILITY.

OHZ001>008-015>018-024>027-034-035-043-044-301300-
   NORTHWEST OHIO

CITY           SKY/WX    TMP DP  RH WIND       PRES   REMARKS
DEFIANCE       FAIR      60  53  77 SW6       29.95R
FINDLAY        FAIR      63  54  72 S8        29.95S
TOLEDO EXPRESS FAIR      61  54  77 SW6       29.93R
TOLEDO EXEC    FAIR      63  56  78 SW8       29.95R
LIMA           FAIR      62  55  77 S8        29.97S
$$

OHZ009>014-019>023-028>033-038-089-301300-
   NORTHEAST OHIO

CITY           SKY/WX    TMP DP  RH WIND       PRES   REMARKS
CLE-HOPKINS    FAIR      65  57  75 SW7       29.98R
CLE-LAKEFRONT  FAIR      66  54  65 S8        29.94S
CUY CO. ARPT   PTSUNNY   63  55  77 S5        29.95
LORAIN-ELYRIA  FAIR      62  53  72 SW8       29.96R
ASHTABULA      PTSUNNY   60  58  92 S6        29.98R
AKRON-CANTON   FAIR      62  56  80 SW7       29.99R
WOOSTER        FAIR      61  57  87 SW9       30.00R
MANSFIELD      FAIR      61  57  87 S6        29.99R
YOUNGSTOWN     PTSUNNY   60  56  86 S3        29.99R
$$

OHZ042-051>053-060>062-070>072-077>081-301300-
  SOUTHWEST OHIO

CITY           SKY/WX    TMP DP  RH WIND       PRES   REMARKS
CINC-COVINGTON FAIR      64  56  75 SW3       30.03S
CINC-LUNKEN    FAIR      65  61  87 CALM      30.03S
HAMILTON       FAIR      64  60  87 CALM      30.03S
DAYTON         FAIR      62  55  77 SW10      30.02R
WRIGHT-PAT AFB FAIR      62  60  93 S5        30.01R
DAYTON GENERAL FAIR      62  56  80 S6        30.02R
WILMINGTON     FAIR      64  57  78 W6        30.03R
$$

OHZ036-037-039>041-045>050-054>059-063>069-073>076-082>088-301300-
  CENTRAL AND SOUTHEAST OHIO

CITY           SKY/WX    TMP DP  RH WIND       PRES   REMARKS
COLUMBUS       FAIR      64  58  80 CALM      30.00R
OSU AIRPORT    FAIR      62  59  90 W3        30.00R
BOLTON FIELD   SUNNY     63  57  82 W5        30.01R
RICKENBACK AFB FAIR      62  59  90 CALM      30.01R
NEWARK         FAIR      63  57  81 CALM      29.99R
MARION         FAIR      62  57  83 SW8       30.00R
LANCASTER      PTSUNNY   67  60  78 W6        30.01R
ZANESVILLE     FAIR      63  59  87 S5        30.00R
NEW PHILLY     PTSUNNY   61  59  93 CALM      30.00R FOG
$$




USA.gov is the U.S. government's official web portal to all federal, state and local government web resources and services.